Вернуться в каталог

OPS 4682 DEB

АктивенPO
NORAD 59151·DEBRIS·🇺🇸 United States

Запущен Apr 3, 1965 с Vandenberg Space Force Base

Loading…

Ближайшие Пролёты (ближайшие 24 часа)

TLE

УстаревающийSource: Space-Track

Эпоха: Sep 10, 2026, 13:20 UTC

1 59151U 65027HT  26253.55599681 -.00000188  00000-0 -66390-3 0  9993
2 59151  90.2405   3.0615 0036518 198.7771 161.2005 12.98139548474832

Отслеживайте OPS 4682 DEB в реальном времени с AllMySat

Download on the App Store